[[{"header":{"parameterUnit":"m.s-1","parameterCategory":2,"la1":30.2991,"la2":30.254,"lo1":-89.0895,"lo2":-89.0444,"dy":0.0017,"dx":0.0017,"nx":28,"ny":28,"refTime":"2024-02-01T09:00:00:Z","depth":"0","parameterNumber":2,"parameterNumberName":"U-component_of_CURRENTS"},"data":[0,0,0,0,0,0,0,0,0,0,0,0,0,0,0,0,0,0,0,0,0,0,0,0,0,0,0,0,0,0,0,0,0,0,0,0,0,0,0,0,0,0,0,0,0,0,0,0,0,0,0,0,0,0,0,0,0,0,0.2782,0.2782,0,0.2761,0.2761,0.2761,0.2749,0.2749,0.275,0.275,0.2739,0.2738,0.2738,0,0,0,0,0,0,0,0,0,0,0,0,0,0.2748,0.2749,0.2782,0.2782,0.2782,0.2762,0.2761,0.2761,0.2749,0.2749,0.275,0.275,0.2739,0.2738,0.2738,0,0,0,0,0,0,0,0,0,0,0,0,0,0.2747,0.2749,0.2782,0.2775,0.2775,0.2762,0.2761,0.276,0.2749,0.2749,0.275,0.275,0.2739,0.2738,0.2738,0.2729,0,0,0.2736,0.2735,0,0,0,0,0,0,0,0,0.2747,0.2748,0.2776,0.2776,0.2775,0.276,0.2745,0.2751,0.2749,0.2757,0.275,0.275,0.2748,0.2747,0.2739,0.2728,0.2728,0.2736,0.2735,0.2735,0.2735,0,0,0,0,0,0,0,0.2747,0.2748,0.2771,0.2776,0.2775,0.2752,0.2752,0.2746,0.275,0.2756,0.2756,0.2757,0.2747,0.274,0.2739,0.2727,0.2736,0.2735,0.2735,0.2734,0.2717,0.2717,0,0,0,0,0,0,0.2757,0.2749,0.2772,0.2771,0.2764,0.2753,0.2753,0.2763,0.2749,0.2748,0.2757,0.2756,0.2741,0.2739,0.2738,0.2723,0.2735,0.2734,0.2734,0.2717,0.2717,0.2717,0,0,0,0,0,0,0.2757,0.276,0.2773,0.276,0.2761,0.2754,0.2764,0.2762,0.2755,0.275,0.2749,0.2752,0.2741,0.2739,0.2728,0.2723,0.2734,0.2733,0.2717,0.2717,0.2717,0.2695,0,0,0,0,0,0,0.2756,0.276,0.2765,0.2762,0.2762,0.2761,0.2764,0.2762,0.2757,0.2756,0.2746,0.2745,0.2741,0.2729,0.2727,0.2722,0.2733,0.2717,0.2717,0.2717,0.2696,0.2694,0.2693,0,0,0,0,0,0.2755,0.2756,0.2766,0.2768,0.2772,0.2761,0.2758,0.2752,0.2756,0.2747,0.2743,0.2745,0.2728,0.2728,0.2726,0.2721,0.2717,0.2717,0.2717,0.2697,0.2695,0.2693,0,0,0,0,0,0,0.2734,0.2755,0.2766,0.2772,0.2768,0.2759,0.2749,0.2752,0.274,0.2742,0.2739,0.2737,0.2728,0.2728,0.2729,0.2717,0.2725,0.2725,0.2711,0.2709,0.2707,0.2687,0.2732,0,0,0,0,0,0.2737,0.2746,0.2758,0.2757,0.2759,0.2757,0.2751,0.2751,0.2744,0.2739,0.2731,0.2728,0.2725,0.272,0.2716,0.2705,0.2733,0.2703,0.2701,0.27,0.2683,0.2755,0.2759,0.2717,0.2717,0.2717,0,0,0.2725,0.2739,0.2741,0.2753,0.2749,0.2737,0.2752,0.2744,0.2725,0.274,0.2709,0.2721,0.2722,0.271,0.2706,0.2709,0.2725,0.27,0.2698,0.2682,0.2755,0.276,0.2764,0.2717,0.2717,0.2717,0,0,0.2691,0.2721,0.2712,0.2714,0.2718,0.272,0.272,0.2716,0.2708,0.2689,0.27,0.271,0.2691,0.2697,0.2697,0.2686,0.2717,0.2687,0.2657,0.2728,0.2732,0.2736,0.2769,0.2776,0.2684,0.2684,0.2684,0,0.2672,0.2672,0.2702,0.2691,0.2685,0.2712,0.2689,0.2684,0.2673,0.2664,0.2675,0.267,0.2684,0.2674,0.2672,0.2682,0.2716,0.2664,0.2727,0.2732,0.2737,0.2769,0.2778,0.2683,0.2683,0.2683,0.2683,0,0.2631,0.263,0.2622,0.2624,0.2621,0.2608,0.2616,0.2607,0.2612,0.2612,0.2605,0.2628,0.2629,0.2641,0.2649,0.2679,0.2689,0.2722,0.2733,0.274,0.2773,0.2782,0.2681,0.2681,0.2682,0.2682,0,0,0.2586,0.2592,0.2588,0.2574,0.2588,0.2575,0.2556,0.2544,0.2533,0.2537,0.2527,0.2537,0.2569,0.2572,0.2601,0.2653,0.2724,0.2695,0.2699,0.2726,0.2858,0.2867,0.2878,0.2778,0.278,0.2781,0.2865,0,0.2539,0.2506,0.2522,0.2479,0.2464,0.2486,0.2465,0.2463,0.2475,0.2477,0.251,0.2517,0.2538,0.2556,0.261,0.2699,0.2747,0.2696,0.2845,0.2848,0.2858,0.289,0.2881,0.2956,0.2874,0.2875,0.2876,0,0.249,0.2479,0.2433,0.2414,0.2408,0.2388,0.2376,0.2362,0.2385,0.2398,0.2421,0.2461,0.2511,0.2555,0.2685,0.2653,0.2745,0.2815,0.2821,0.284,0.2876,0.2938,0.2976,0.2844,0.2891,0.289,0.2888,0,0.2441,0.241,0.2371,0.2365,0.2354,0.2331,0.2324,0.2336,0.233,0.2361,0.238,0.2437,0.2486,0.2597,0.2727,0.2722,0.2888,0.2911,0.2993,0.2993,0.3017,0.3017,0.2945,0.3016,0.3016,0.3016,0.3016,0,0.2391,0.2356,0.2344,0.2323,0.2279,0.2286,0.2254,0.2258,0.2282,0.2286,0.2343,0.2374,0.251,0.2615,0.2727,0.288,0.2895,0.2985,0.3024,0.3007,0.3005,0.2917,0.2885,0.3019,0.3018,0.3018,0.3017,0,0.2344,0.2335,0.2291,0.2268,0.2256,0.2226,0.2213,0.2199,0.2227,0.2246,0.2258,0.2349,0.2482,0.2611,0.2804,0.2887,0.297,0.3083,0.3028,0.3059,0.2999,0.2969,0.2867,0.2828,0.3179,0.318,0.3181,0,0.2318,0.2291,0.2252,0.2227,0.2213,0.2178,0.2159,0.217,0.2169,0.2229,0.2242,0.2363,0.2449,0.2702,0.2885,0.3071,0.299,0.3162,0.3154,0.2985,0.2982,0.283,0.2794,0.3174,0.3174,0.3175,0.3175,0,0.2275,0.2261,0.223,0.2185,0.2151,0.2115,0.2095,0.209,0.2115,0.2145,0.2204,0.2277,0.2518,0.2689,0.293,0.3076,0.3019,0.3177,0.3037,0.2993,0.2792,0.2778,0.3091,0.318,0.3179,0.3179,0.3179,0.3179,0.2244,0.2218,0.2181,0.2132,0.2092,0.2054,0.2021,0.2027,0.2032,0.2069,0.2157,0.2263,0.2525,0.2865,0.2954,0.3098,0.305,0.3086,0.307,0.2932,0.2861,0.3155,0.3268,0.3268,0.3268,0.3268,0.3268,0,0.2202,0.2173,0.2129,0.2063,0.2001,0.2003,0.1972,0.195,0.1951,0.2027,0.2084,0.2335,0.2549,0.2767,0.3034,0.2991,0.2902,0.2919,0.2696,0.268,0.2988,0.2952,0.2958,0.2958,0.2958,0.2958,0.2958,0.2958,0.2174,0.2122,0.2099,0.199,0.1942,0.1872,0.1851,0.1843,0.1883,0.195,0.2052,0.2157,0.2454,0.2711,0.2816,0.281,0.2614,0.2521,0.2454,0.2657,0.2669,0.268,0.2631,0.2569,0.2569,0.2072,0.2068,0.2065]},{"header":{"parameterUnit":"m.s-1","parameterCategory":2,"la1":30.2991,"la2":30.254,"lo1":-89.0895,"lo2":-89.0444,"dy":0.0017,"dx":0.0017,"nx":28,"ny":28,"refTime":"2024-02-01T09:00:00:Z","depth":"0","parameterNumber":3,"parameterNumberName":"V-component_of_CURRENTS"},"data":[0,0,0,0,0,0,0,0,0,0,0,0,0,0,0,0,0,0,0,0,0,0,0,0,0,0,0,0,0,0,0,0,0,0,0,0,0,0,0,0,0,0,0,0,0,0,0,0,0,0,0,0,0,0,0,0,0,0,-0.068,-0.0679,0,-0.0633,-0.0633,-0.0632,-0.0619,-0.0619,-0.0619,-0.0619,-0.0606,-0.0605,-0.0604,0,0,0,0,0,0,0,0,0,0,0,0,0,-0.0746,-0.0745,-0.068,-0.0679,-0.0678,-0.0633,-0.0633,-0.0632,-0.0619,-0.0619,-0.0619,-0.0619,-0.0606,-0.0605,-0.0604,0,0,0,0,0,0,0,0,0,0,0,0,0,-0.071,-0.0744,-0.068,-0.0666,-0.0665,-0.0634,-0.0633,-0.0632,-0.0619,-0.0619,-0.0619,-0.062,-0.0606,-0.0605,-0.0604,-0.0591,0,0,-0.0601,-0.0601,0,0,0,0,0,0,0,0,-0.0712,-0.0708,-0.0669,-0.0667,-0.0665,-0.0632,-0.0651,-0.062,-0.0618,-0.0636,-0.0619,-0.062,-0.0617,-0.0615,-0.0605,-0.0591,-0.059,-0.0601,-0.0601,-0.06,-0.06,0,0,0,0,0,0,0,-0.0715,-0.0709,-0.0661,-0.0668,-0.0666,-0.0659,-0.0654,-0.0645,-0.0626,-0.0634,-0.0633,-0.0628,-0.0617,-0.0606,-0.0605,-0.059,-0.0601,-0.0601,-0.06,-0.06,-0.0517,-0.0516,0,0,0,0,0,0,-0.072,-0.0712,-0.0663,-0.066,-0.069,-0.0658,-0.0652,-0.0642,-0.0625,-0.0622,-0.0628,-0.0628,-0.0608,-0.0606,-0.0605,-0.0548,-0.06,-0.06,-0.0599,-0.0519,-0.0517,-0.0515,0,0,0,0,0,0,-0.0722,-0.0716,-0.0665,-0.0685,-0.0678,-0.0656,-0.0645,-0.0641,-0.0631,-0.062,-0.0618,-0.0622,-0.0608,-0.0606,-0.0585,-0.0549,-0.0599,-0.0598,-0.0521,-0.0518,-0.0516,-0.046,0,0,0,0,0,0,-0.0724,-0.0717,-0.071,-0.0685,-0.0677,-0.0643,-0.0644,-0.064,-0.0627,-0.0627,-0.0614,-0.0613,-0.0608,-0.0586,-0.0584,-0.0548,-0.0598,-0.0523,-0.052,-0.0517,-0.0464,-0.0456,-0.0449,0,0,0,0,0,-0.0726,-0.0708,-0.071,-0.0704,-0.0669,-0.0642,-0.0637,-0.0623,-0.0627,-0.0617,-0.0604,-0.0613,-0.0565,-0.0585,-0.0583,-0.0545,-0.0524,-0.052,-0.0517,-0.0467,-0.0457,-0.0449,0,0,0,0,0,0,-0.0728,-0.0705,-0.0706,-0.0681,-0.0665,-0.064,-0.0626,-0.0623,-0.0604,-0.0604,-0.06,-0.0597,-0.0563,-0.0564,-0.0586,-0.0511,-0.0543,-0.0538,-0.0506,-0.0497,-0.0489,-0.0447,-0.0597,0,0,0,0,0,-0.0728,-0.0709,-0.0692,-0.0671,-0.0664,-0.0648,-0.0636,-0.0629,-0.061,-0.0603,-0.0593,-0.0574,-0.0544,-0.0531,-0.0514,-0.0479,-0.0451,-0.0451,-0.0443,-0.0437,-0.04,-0.0299,-0.0278,-0.0503,-0.0503,-0.0503,0,0,-0.072,-0.0707,-0.0694,-0.0671,-0.0657,-0.0631,-0.0641,-0.062,-0.059,-0.0604,-0.0565,-0.0555,-0.0531,-0.0485,-0.0469,-0.0482,-0.0371,-0.0432,-0.0427,-0.0393,-0.0293,-0.0271,-0.0251,-0.05,-0.0501,-0.0501,0,0,-0.0689,-0.0687,-0.066,-0.0648,-0.0629,-0.0618,-0.0614,-0.0593,-0.0576,-0.0546,-0.0534,-0.0489,-0.0475,-0.0421,-0.0398,-0.0337,-0.0339,-0.0351,-0.0272,-0.0176,-0.0156,-0.0138,-0.0129,-0.011,-0.0342,-0.0341,-0.0341,0,-0.0679,-0.0645,-0.0648,-0.0622,-0.06,-0.0612,-0.0575,-0.0559,-0.0532,-0.0494,-0.0529,-0.0429,-0.0426,-0.0316,-0.0299,-0.0315,-0.0295,-0.0312,-0.0163,-0.0144,-0.0127,-0.0121,-0.0101,-0.0338,-0.0339,-0.0339,-0.0339,0,-0.0629,-0.0604,-0.0587,-0.0557,-0.0538,-0.0511,-0.0493,-0.0469,-0.0463,-0.0433,-0.0346,-0.0325,-0.0253,-0.0252,-0.0261,-0.0127,-0.0171,-0.0171,-0.0184,-0.01,-0.0102,-0.0082,-0.0334,-0.0335,-0.0336,-0.0337,0,0,-0.0591,-0.0556,-0.0549,-0.0522,-0.05,-0.0474,-0.0425,-0.0362,-0.0299,-0.0282,-0.0174,-0.0127,-0.0109,-0.0079,-0.0072,0.0007,0.0112,-0.0031,-0.0027,-0.0019,0.0268,0.0207,0.0222,0.0138,0.0143,0.0147,0.0196,0,-0.0545,-0.0487,-0.0476,-0.0413,-0.0381,-0.0367,-0.0311,-0.0259,-0.0219,-0.0128,-0.0073,0.001,-0.0046,-0.0001,0.0072,0.0119,0.0177,0.0095,0.0185,0.0187,0.0128,0.025,0.0278,0.0325,0.0215,0.0218,0.0221,0,-0.0494,-0.0461,-0.0395,-0.0327,-0.0308,-0.0272,-0.0169,-0.0119,-0.0008,0.0031,0.0125,0.0155,0.0275,0.0213,0.0345,0.0291,0.0289,0.0306,0.0309,0.0263,0.0168,0.0236,0.0365,0.0214,0.0251,0.0249,0.0247,0,-0.0464,-0.0398,-0.0342,-0.0324,-0.0256,-0.0206,-0.0161,-0.0063,0.0016,0.0146,0.0225,0.0338,0.0417,0.0467,0.0464,0.0423,0.0592,0.054,0.0476,0.0467,0.052,0.0508,0.0532,0.0651,0.0651,0.065,0.065,0,-0.0417,-0.0369,-0.0325,-0.0296,-0.0203,-0.0171,-0.0049,0.0011,0.014,0.0269,0.0312,0.044,0.0495,0.0573,0.0544,0.0573,0.0653,0.0531,0.0516,0.0528,0.0518,0.0409,0.0322,0.0652,0.0652,0.0651,0.0651,0,-0.0386,-0.0363,-0.0293,-0.0221,-0.0191,-0.0124,0.0004,0.0105,0.0199,0.0375,0.0426,0.0559,0.0658,0.0666,0.0753,0.0682,0.064,0.0683,0.0642,0.0623,0.0401,0.0316,0.0382,0.0298,0.064,0.0639,0.0638,0,-0.0361,-0.0328,-0.0247,-0.0195,-0.0158,-0.006,0.0027,0.0129,0.0242,0.0451,0.0554,0.0689,0.0808,0.087,0.0807,0.0764,0.0641,0.0706,0.0653,0.0434,0.033,0.028,0.02,0.0714,0.0714,0.0714,0.0714,0,-0.0305,-0.0284,-0.0226,-0.0133,-0.0049,0.0065,0.0188,0.0283,0.0431,0.0573,0.077,0.0879,0.0936,0.0962,0.0872,0.0807,0.0603,0.0702,0.055,0.0469,0.0357,0.0251,0.055,0.0715,0.0715,0.0715,0.0715,0.0715,-0.0257,-0.0208,-0.014,-0.0045,0.0052,0.0194,0.0309,0.0446,0.0627,0.0863,0.0922,0.1111,0.1118,0.1029,0.0862,0.06,0.0585,0.0513,0.0445,0.0426,0.0318,0.0563,0.0659,0.0659,0.0659,0.0658,0.0658,0,-0.0187,-0.0131,-0.0046,0.0078,0.02,0.0239,0.0431,0.0562,0.0774,0.0976,0.1143,0.1309,0.1198,0.1026,0.0738,0.0442,0.0314,0.0259,0.0217,0.0156,0.0462,0.0433,0.0398,0.0398,0.0398,0.0398,0.0398,0.0398,-0.0137,-0.0049,-0.0009,0.019,0.0285,0.0477,0.0597,0.0772,0.0942,0.1225,0.1394,0.1517,0.1566,0.0944,0.0451,0.0244,-0.0023,-0.0062,-0.022,-0.0018,0.0001,0.0018,-0.003,-0.0161,-0.0162,-0.0478,-0.0482,-0.0484]}],[{"header":{"parameterUnit":"m.s-1","parameterCategory":2,"la1":30.2991,"la2":30.254,"lo1":-89.0895,"lo2":-89.0444,"dy":0.0017,"dx":0.0017,"nx":28,"ny":28,"refTime":"2024-02-01T09:00:00:Z","depth":"2","parameterNumber":2,"parameterNumberName":"U-component_of_CURRENTS"},"data":[0,0,0,0,0,0,0,0,0,0,0,0,0,0,0,0,0,0,0,0,0,0,0,0,0,0,0,0,0,0,0,0,0,0,0,0,0,0,0,0,0,0,0,0,0,0,0,0,0,0,0,0,0,0,0,0,0,0,0.0983,0.0983,0,0.0982,0.0982,0.0982,0.1006,0.1007,0.1008,0.1009,0.1014,0.1013,0.1012,0,0,0,0,0,0,0,0,0,0,0,0,0,0.0945,0.0945,0.0983,0.0983,0.0983,0.0982,0.0982,0.0981,0.1006,0.1007,0.1008,0.1009,0.1014,0.1013,0.1012,0,0,0,0,0,0,0,0,0,0,0,0,0,0.0951,0.0946,0.0983,0.0998,0.1,0.0982,0.0982,0.0981,0.1005,0.1007,0.1008,0.101,0.1014,0.1013,0.1012,0.0974,0,0,0.1008,0.1008,0,0,0,0,0,0,0,0,0.095,0.0952,0.0996,0.0997,0.0999,0.0999,0.097,0.0981,0.1005,0.0999,0.1009,0.1011,0.1011,0.101,0.1001,0.0974,0.0974,0.1008,0.1007,0.1007,0.1007,0,0,0,0,0,0,0,0.095,0.0951,0.0978,0.0996,0.0998,0.0985,0.0988,0.0972,0.0993,0.1,0.1003,0.1008,0.1012,0.1002,0.1001,0.0975,0.1008,0.1007,0.1006,0.1006,0.099,0.0991,0,0,0,0,0,0,0.096,0.0951,0.0979,0.0979,0.0983,0.0985,0.0988,0.0994,0.0994,0.0996,0.1007,0.101,0.1003,0.1003,0.1001,0.1021,0.1007,0.1006,0.1005,0.099,0.099,0.0991,0,0,0,0,0,0,0.0959,0.0962,0.0979,0.0968,0.097,0.0985,0.0992,0.0994,0.1005,0.1,0.1002,0.102,0.1004,0.1003,0.1002,0.1019,0.1005,0.1004,0.099,0.099,0.0991,0.1019,0,0,0,0,0,0,0.0958,0.0962,0.0967,0.0969,0.0971,0.0981,0.0991,0.0993,0.1007,0.1011,0.1011,0.1012,0.1005,0.1003,0.1,0.1017,0.1003,0.0989,0.099,0.099,0.1017,0.102,0.1022,0,0,0,0,0,0.0956,0.0956,0.0967,0.0971,0.0979,0.0981,0.0981,0.0993,0.1007,0.1009,0.101,0.1013,0.1006,0.1002,0.0999,0.1016,0.0989,0.099,0.099,0.1016,0.102,0.1022,0,0,0,0,0,0,0.0937,0.0958,0.0971,0.0977,0.0987,0.0988,0.0989,0.1,0.1001,0.1009,0.1006,0.1006,0.1012,0.1006,0.1002,0.1013,0.1002,0.1002,0.1023,0.1026,0.1028,0.1037,0.1002,0,0,0,0,0,0.0937,0.0947,0.0963,0.0968,0.0976,0.0986,0.0989,0.1001,0.1004,0.1007,0.1008,0.1009,0.1006,0.1011,0.1002,0.1002,0.1014,0.1014,0.1016,0.1019,0.1023,0.1055,0.1061,0.0993,0.0993,0.0993,0,0,0.0928,0.0944,0.0947,0.0966,0.0973,0.0977,0.0991,0.1002,0.1009,0.1005,0.1011,0.1012,0.1006,0.101,0.1013,0.1011,0.1045,0.1019,0.1021,0.1025,0.1056,0.1063,0.1069,0.0994,0.0994,0.0994,0,0,0.0911,0.0934,0.0935,0.0948,0.097,0.0977,0.0987,0.0999,0.1012,0.1013,0.1019,0.1032,0.1021,0.1029,0.1029,0.1038,0.1053,0.1041,0.1066,0.1097,0.1103,0.1108,0.1139,0.1147,0.1048,0.1048,0.1048,0,0.0896,0.0911,0.0933,0.094,0.0953,0.0981,0.0986,0.0994,0.1005,0.1019,0.1022,0.1034,0.103,0.1047,0.1055,0.1045,0.1066,0.1056,0.1101,0.1107,0.1112,0.1142,0.115,0.105,0.105,0.105,0.1049,0,0.088,0.0898,0.0901,0.0923,0.0936,0.0947,0.0972,0.0989,0.1011,0.1025,0.1052,0.1051,0.1069,0.107,0.1064,0.1103,0.1108,0.1098,0.1096,0.1121,0.115,0.1159,0.1052,0.1051,0.1051,0.1051,0,0,0.0824,0.0878,0.0879,0.0901,0.0935,0.0944,0.0966,0.0995,0.1023,0.1039,0.1074,0.1078,0.1104,0.1105,0.1113,0.1138,0.1193,0.114,0.1141,0.1175,0.127,0.1307,0.132,0.1198,0.1199,0.12,0.1278,0,0.0804,0.0825,0.0855,0.0875,0.0892,0.0934,0.0953,0.0988,0.1022,0.1061,0.1089,0.1116,0.1111,0.1133,0.116,0.1185,0.1215,0.1173,0.1236,0.1238,0.1273,0.1331,0.1098,0.1151,0.1286,0.1287,0.1288,0,0.0776,0.0801,0.0822,0.0879,0.0889,0.0904,0.0964,0.0986,0.1049,0.1081,0.1128,0.1153,0.1203,0.119,0.126,0.1238,0.1259,0.1272,0.1276,0.1307,0.1291,0.1146,0.1161,0.1302,0.1301,0.13,0.1299,0,0.0739,0.0779,0.0802,0.0818,0.0878,0.09,0.0933,0.0994,0.1033,0.1104,0.115,0.1202,0.1251,0.1281,0.1331,0.13,0.141,0.1367,0.1417,0.1419,0.1231,0.1216,0.1412,0.1412,0.1412,0.1412,0.1412,0,0.0712,0.0728,0.0791,0.0804,0.0838,0.0886,0.0934,0.0978,0.1055,0.1118,0.1166,0.1235,0.128,0.1351,0.1363,0.1444,0.1444,0.1441,0.1451,0.1236,0.1221,0.1353,0.1345,0.1415,0.1414,0.1414,0.1413,0,0.0671,0.0709,0.0741,0.0804,0.0825,0.0852,0.0935,0.0982,0.1053,0.1142,0.1171,0.1281,0.139,0.1439,0.1509,0.1506,0.1554,0.1574,0.1331,0.1313,0.1525,0.1517,0.1626,0.1629,0.1631,0.1632,0.1633,0,0.0655,0.0669,0.0734,0.0763,0.0795,0.0846,0.0893,0.0971,0.1034,0.1177,0.1229,0.1361,0.1461,0.1594,0.1573,0.1612,0.1652,0.1455,0.1354,0.1554,0.1552,0.1541,0.1531,0.1102,0.1099,0.1097,0.1095,0,0.0629,0.0656,0.069,0.0747,0.0797,0.0848,0.0925,0.0968,0.1081,0.1169,0.1311,0.1397,0.1504,0.1465,0.153,0.1505,0.1428,0.141,0.1673,0.1112,0.1074,0.1068,0.1072,0.1072,0.1074,0.1076,0.1077,0.1078,0.0618,0.0639,0.0694,0.0745,0.0794,0.0855,0.0895,0.0985,0.1079,0.1172,0.129,0.1339,0.1325,0.1319,0.1316,0.1283,0.1372,0.1264,0.1265,0.127,0.1223,0.1193,0.1204,0.1207,0.1209,0.1212,0.1214,0,0.0624,0.0657,0.0697,0.0758,0.0799,0.0838,0.0924,0.0953,0.1052,0.1094,0.118,0.1046,0.1035,0.1064,0.0955,0.0983,0.089,0.0965,0.0792,0.0813,0.0833,0.0758,0.0619,0.0619,0.0618,0.0618,0,0,0.0636,0.0679,0.0701,0.0757,0.0798,0.0852,0.0898,0.0929,0.095,0.0915,0.088,0.092,0.0972,0.0768,0.0741,0.0681,0.0745,0.0643,0.1096,0.0908,0.0927,0.0963,0.087,0,0,0,0,0]},{"header":{"parameterUnit":"m.s-1","parameterCategory":2,"la1":30.2991,"la2":30.254,"lo1":-89.0895,"lo2":-89.0444,"dy":0.0017,"dx":0.0017,"nx":28,"ny":28,"refTime":"2024-02-01T09:00:00:Z","depth":"2","parameterNumber":3,"parameterNumberName":"V-component_of_CURRENTS"},"data":[0,0,0,0,0,0,0,0,0,0,0,0,0,0,0,0,0,0,0,0,0,0,0,0,0,0,0,0,0,0,0,0,0,0,0,0,0,0,0,0,0,0,0,0,0,0,0,0,0,0,0,0,0,0,0,0,0,0,-0.0266,-0.0267,0,-0.0336,-0.0337,-0.0338,-0.0407,-0.0408,-0.0409,-0.041,-0.0492,-0.0494,-0.0495,0,0,0,0,0,0,0,0,0,0,0,0,0,-0.0195,-0.0196,-0.0266,-0.0267,-0.0268,-0.0336,-0.0337,-0.0338,-0.0407,-0.0408,-0.0409,-0.0411,-0.0492,-0.0493,-0.0495,0,0,0,0,0,0,0,0,0,0,0,0,0,-0.024,-0.0196,-0.0266,-0.0312,-0.0317,-0.0336,-0.0337,-0.0338,-0.0406,-0.0408,-0.041,-0.0411,-0.0492,-0.0493,-0.0495,-0.0473,0,0,-0.05,-0.0501,0,0,0,0,0,0,0,0,-0.0237,-0.0242,-0.0304,-0.0309,-0.0315,-0.0366,-0.0343,-0.0385,-0.0406,-0.037,-0.041,-0.0412,-0.0451,-0.0457,-0.0463,-0.0477,-0.0481,-0.0501,-0.0502,-0.0502,-0.0503,0,0,0,0,0,0,0,-0.0234,-0.024,-0.0292,-0.0305,-0.0312,-0.0331,-0.0339,-0.0351,-0.04,-0.0374,-0.0379,-0.039,-0.0454,-0.0461,-0.0466,-0.0482,-0.0501,-0.0502,-0.0503,-0.0504,-0.0552,-0.0552,0,0,0,0,0,0,-0.0227,-0.0237,-0.029,-0.0294,-0.0282,-0.0331,-0.034,-0.0347,-0.0399,-0.041,-0.0388,-0.0393,-0.0457,-0.0464,-0.0469,-0.0502,-0.0502,-0.0504,-0.0505,-0.0552,-0.0552,-0.0552,0,0,0,0,0,0,-0.0226,-0.0231,-0.0287,-0.0269,-0.0278,-0.0331,-0.0338,-0.0347,-0.0376,-0.0411,-0.0421,-0.041,-0.0459,-0.0466,-0.0496,-0.0504,-0.0505,-0.0507,-0.0552,-0.0552,-0.0552,-0.0533,0,0,0,0,0,0,-0.0223,-0.023,-0.0235,-0.0268,-0.0279,-0.0306,-0.0337,-0.0347,-0.0379,-0.0386,-0.0432,-0.0441,-0.0461,-0.0493,-0.0497,-0.0506,-0.0508,-0.0551,-0.0552,-0.0552,-0.0533,-0.0532,-0.0531,0,0,0,0,0,-0.022,-0.0217,-0.0235,-0.0242,-0.0283,-0.0306,-0.0313,-0.0355,-0.0379,-0.0387,-0.0422,-0.044,-0.0499,-0.0494,-0.05,-0.0509,-0.0551,-0.0552,-0.0552,-0.0533,-0.0532,-0.0531,0,0,0,0,0,0,-0.0181,-0.0225,-0.0245,-0.0254,-0.0283,-0.0319,-0.033,-0.0359,-0.0391,-0.0403,-0.0439,-0.0448,-0.0476,-0.0493,-0.0487,-0.0525,-0.0529,-0.0531,-0.0513,-0.0513,-0.0512,-0.0493,-0.0509,0,0,0,0,0,-0.0175,-0.0192,-0.023,-0.0238,-0.0251,-0.0292,-0.0309,-0.0338,-0.037,-0.0388,-0.0422,-0.0455,-0.0477,-0.0496,-0.0516,-0.0533,-0.0542,-0.0544,-0.0544,-0.0543,-0.0531,-0.056,-0.0561,-0.0554,-0.0554,-0.0554,0,0,-0.0161,-0.0189,-0.0198,-0.0233,-0.0257,-0.0271,-0.0306,-0.0332,-0.035,-0.0389,-0.0423,-0.045,-0.048,-0.0502,-0.0517,-0.0522,-0.0548,-0.0543,-0.0542,-0.0531,-0.0561,-0.0562,-0.0562,-0.0554,-0.0554,-0.0554,0,0,-0.014,-0.0166,-0.0174,-0.0196,-0.0237,-0.0261,-0.0271,-0.0315,-0.0343,-0.0372,-0.0406,-0.0438,-0.0476,-0.0499,-0.0515,-0.0519,-0.054,-0.0533,-0.0519,-0.0548,-0.0548,-0.0549,-0.0552,-0.0554,-0.0537,-0.0537,-0.0537,0,-0.0119,-0.0139,-0.0177,-0.0189,-0.0206,-0.0256,-0.0263,-0.0291,-0.0342,-0.0359,-0.0383,-0.044,-0.0471,-0.0494,-0.0502,-0.0517,-0.0529,-0.052,-0.0546,-0.0547,-0.0548,-0.0552,-0.0553,-0.0537,-0.0537,-0.0537,-0.0537,0,-0.0107,-0.0124,-0.0127,-0.0163,-0.0182,-0.0197,-0.0239,-0.0265,-0.0305,-0.0336,-0.0374,-0.0415,-0.0448,-0.0469,-0.0489,-0.0512,-0.0516,-0.0538,-0.0546,-0.0548,-0.0551,-0.0553,-0.0535,-0.0536,-0.0536,-0.0536,0,0,-0.0056,-0.0109,-0.0111,-0.0125,-0.0173,-0.0185,-0.021,-0.0244,-0.0256,-0.0313,-0.0328,-0.0383,-0.041,-0.0428,-0.0462,-0.0493,-0.0515,-0.0519,-0.0522,-0.0517,-0.0563,-0.0509,-0.0506,-0.0548,-0.0549,-0.0549,-0.0559,0,-0.0036,-0.0053,-0.0085,-0.0098,-0.011,-0.0155,-0.0168,-0.0206,-0.0244,-0.0267,-0.0321,-0.0343,-0.0393,-0.0406,-0.0448,-0.0494,-0.0521,-0.0509,-0.0566,-0.0567,-0.0515,-0.0507,-0.0496,-0.0499,-0.0561,-0.0561,-0.0561,0,-0.0017,-0.0034,-0.0043,-0.0074,-0.008,-0.0089,-0.0119,-0.0136,-0.0178,-0.0204,-0.0244,-0.0284,-0.033,-0.0371,-0.0456,-0.0449,-0.05,-0.054,-0.0542,-0.0497,-0.0516,-0.051,-0.0501,-0.0565,-0.0564,-0.0564,-0.0564,0,0.0021,-0.0005,-0.0014,-0.0025,-0.0061,-0.0067,-0.008,-0.0117,-0.0116,-0.0155,-0.0152,-0.0228,-0.0244,-0.0335,-0.0421,-0.0444,-0.0503,-0.0546,-0.0542,-0.0539,-0.054,-0.0535,-0.06,-0.06,-0.06,-0.06,-0.06,0,0.0045,0.0039,0.0005,0.0001,0.0011,-0.0027,-0.0014,-0.0037,-0.0049,-0.0028,-0.0108,-0.0097,-0.0238,-0.0292,-0.0392,-0.0455,-0.0482,-0.0524,-0.0537,-0.0531,-0.0525,-0.0595,-0.0594,-0.06,-0.06,-0.06,-0.06,0,0.0081,0.0052,0.005,0.0026,0.0025,0.0036,0.0044,0.0062,0.0041,0.007,0.0068,0.0006,-0.0054,-0.0181,-0.0306,-0.0388,-0.0474,-0.0491,-0.0456,-0.0463,-0.05,-0.0498,-0.0492,-0.049,-0.0489,-0.0488,-0.0487,0,0.0094,0.0094,0.0084,0.01,0.0093,0.0107,0.0129,0.0111,0.0138,0.0145,0.0174,0.0127,0.0129,-0.0021,-0.0189,-0.0329,-0.0395,-0.0412,-0.0454,-0.0475,-0.0489,-0.0489,-0.049,-0.0454,-0.0453,-0.0452,-0.0451,0,0.0137,0.0131,0.0137,0.0166,0.0189,0.0224,0.0252,0.0287,0.0285,0.0331,0.0387,0.0396,0.0254,0.0115,-0.0084,-0.0188,-0.0393,-0.0391,-0.0438,-0.0468,-0.0436,-0.045,-0.0452,-0.0441,-0.0442,-0.0443,-0.0444,-0.0444,0.0182,0.0202,0.0214,0.0246,0.0279,0.0342,0.0388,0.0445,0.0524,0.0596,0.0582,0.0578,0.0342,0.0105,-0.0052,-0.0247,-0.0268,-0.0373,-0.0379,-0.0385,-0.0363,-0.0329,-0.031,-0.031,-0.031,-0.031,-0.031,0,0.0246,0.0262,0.0298,0.0339,0.0396,0.0392,0.0475,0.0556,0.0685,0.0713,0.0794,0.0583,0.0426,0.0161,-0.0106,-0.0247,-0.0283,-0.0302,-0.0349,-0.0356,-0.0364,-0.0344,-0.0284,-0.0284,-0.0284,-0.0284,0,0,0.0284,0.0332,0.0347,0.044,0.0471,0.056,0.0617,0.0758,0.0807,0.0867,0.0808,0.0764,0.0417,0.0214,0.0006,-0.0137,-0.0197,-0.0149,-0.0158,-0.0194,-0.0199,-0.0398,-0.0374,0,0,0,0,0]}],[{"header":{"parameterUnit":"m.s-1","parameterCategory":2,"la1":30.2991,"la2":30.254,"lo1":-89.0895,"lo2":-89.0444,"dy":0.0017,"dx":0.0017,"nx":28,"ny":28,"refTime":"2024-02-01T09:00:00:Z","depth":"4","parameterNumber":2,"parameterNumberName":"U-component_of_CURRENTS"},"data":[0,0,0,0,0,0,0,0,0,0,0,0,0,0,0,0,0,0,0,0,0,0,0,0,0,0,0,0,0,0,0,0,0,0,0,0,0,0,0,0,0,0,0,0,0,0,0,0,0,0,0,0,0,0,0,0,0,0,0.0047,0.0047,0,0.0024,0.0024,0.0024,0.005,0.0052,0.0053,0.0054,0.0253,0.0257,0.0261,0,0,0,0,0,0,0,0,0,0,0,0,0,0.0041,0.0041,0.0047,0.0047,0.0047,0.0024,0.0024,0.0023,0.005,0.0052,0.0053,0.0054,0.0251,0.0256,0.0261,0,0,0,0,0,0,0,0,0,0,0,0,0,0.0032,0.0041,0.0047,0.0058,0.0059,0.0024,0.0024,0.0023,0.005,0.0052,0.0053,0.0055,0.025,0.0256,0.0262,0.0267,0,0,0.0282,0.0284,0,0,0,0,0,0,0,0,0.0033,0.0032,0.0057,0.0058,0.0059,0.0043,0.0095,0.0117,0.0049,0.0052,0.0054,0.0056,0.0203,0.0213,0.02,0.0277,0.0285,0.0282,0.0286,0.0289,0.0291,0,0,0,0,0,0,0,0.0033,0.0033,0.0037,0.0057,0.0058,0.004,0.0041,0.0097,0.0121,0.0052,0.0054,0.0053,0.0205,0.0193,0.0206,0.0288,0.0282,0.0288,0.0292,0.0294,0.0519,0.0521,0,0,0,0,0,0,0.0041,0.0034,0.0037,0.0036,0.0051,0.0039,0.004,0.0045,0.0116,0.0127,0.0052,0.0055,0.0182,0.0198,0.0213,0.0376,0.0289,0.0295,0.0298,0.0517,0.052,0.0522,0,0,0,0,0,0,0.0041,0.0042,0.0038,0.0035,0.0034,0.0038,0.0043,0.0044,0.0064,0.0114,0.0129,0.0075,0.0184,0.0204,0.032,0.0379,0.0298,0.0303,0.0514,0.0518,0.0521,0.0606,0,0,0,0,0,0,0.0041,0.0042,0.0047,0.0036,0.0034,0.0039,0.0041,0.0042,0.006,0.0064,0.0139,0.0156,0.0187,0.031,0.0326,0.0386,0.0308,0.0512,0.0516,0.052,0.06,0.0612,0.0621,0,0,0,0,0,0.0041,0.0042,0.0048,0.0048,0.0042,0.0039,0.0037,0.0044,0.006,0.0069,0.0147,0.0156,0.0346,0.0318,0.0336,0.0399,0.051,0.0515,0.0519,0.0596,0.0609,0.0621,0,0,0,0,0,0,0.0041,0.0044,0.0051,0.0054,0.0057,0.0045,0.0046,0.0058,0.0116,0.0142,0.0194,0.0218,0.0338,0.0352,0.0319,0.0472,0.0425,0.0434,0.0477,0.049,0.05,0.0491,0.0314,0,0,0,0,0,0.0043,0.0049,0.005,0.0054,0.0055,0.0056,0.0057,0.0073,0.0116,0.014,0.0222,0.0296,0.0361,0.0415,0.0476,0.0566,0.0548,0.0613,0.0624,0.0633,0.0637,0.0644,0.0654,0.0538,0.0538,0.0538,0,0,0.0038,0.0046,0.0046,0.0055,0.0053,0.0067,0.0062,0.0078,0.0126,0.0159,0.0286,0.0345,0.0393,0.0499,0.0552,0.0529,0.0661,0.0639,0.0647,0.0645,0.065,0.0661,0.0671,0.0541,0.0541,0.054,0,0,0.0038,0.0045,0.0052,0.0064,0.0081,0.0084,0.01,0.0139,0.0191,0.0307,0.0341,0.044,0.0563,0.0605,0.0634,0.0736,0.0715,0.0759,0.0815,0.0822,0.0831,0.0839,0.0844,0.0851,0.0766,0.0766,0.0766,0,0.0037,0.0051,0.0052,0.0072,0.0093,0.0101,0.0129,0.0168,0.0264,0.0335,0.0372,0.056,0.0609,0.0703,0.0745,0.0762,0.0756,0.0765,0.0835,0.0842,0.0848,0.085,0.0857,0.0771,0.077,0.077,0.0769,0,0.0049,0.0065,0.007,0.0105,0.0128,0.0149,0.0205,0.0274,0.036,0.043,0.0593,0.0671,0.0778,0.0809,0.0817,0.0893,0.0872,0.0844,0.0798,0.0865,0.0863,0.0869,0.0777,0.0776,0.0774,0.0773,0,0,0.0035,0.007,0.0076,0.01,0.0156,0.0172,0.0265,0.0351,0.043,0.0572,0.0694,0.0824,0.0885,0.0919,0.0945,0.0962,0.1013,0.0933,0.0931,0.0929,0.1031,0.0874,0.0864,0.0995,0.0996,0.0997,0.1015,0,0.0046,0.0086,0.0113,0.0161,0.0184,0.0238,0.0318,0.0415,0.0533,0.0663,0.0767,0.0894,0.0917,0.098,0.101,0.1012,0.103,0.101,0.0972,0.0971,0.0817,0.0866,0.1001,0.1019,0.102,0.1021,0.1022,0,0.0058,0.0085,0.0136,0.02,0.0217,0.0262,0.0391,0.0474,0.0635,0.0743,0.0887,0.0963,0.1061,0.1046,0.1103,0.1091,0.1074,0.1062,0.1061,0.0885,0.0824,0.0936,0.1031,0.1031,0.103,0.1029,0.1029,0,0.0051,0.0104,0.0147,0.0171,0.0246,0.0304,0.0367,0.0521,0.0607,0.0801,0.0875,0.1022,0.1077,0.1109,0.1099,0.1115,0.1105,0.1118,0.0963,0.0952,0.105,0.1041,0.1131,0.1131,0.113,0.113,0.113,0,0.006,0.0086,0.0149,0.0168,0.0241,0.0318,0.0429,0.0526,0.067,0.0764,0.0916,0.097,0.1088,0.1096,0.1107,0.1035,0.1114,0.0976,0.0944,0.1088,0.1083,0.1054,0.1045,0.1131,0.1131,0.1131,0.1131,0,0.0043,0.008,0.0118,0.0198,0.0235,0.0301,0.0427,0.0501,0.0643,0.0757,0.0811,0.0936,0.095,0.1,0.1022,0.1001,0.0972,0.0911,0.1051,0.1026,0.083,0.0826,0.0802,0.0797,0.0792,0.0789,0.0785,0,0.0035,0.0056,0.0125,0.0162,0.0201,0.0302,0.0364,0.05,0.0573,0.0705,0.0734,0.0782,0.0847,0.0777,0.0827,0.0831,0.0802,0.0809,0.0852,0.0824,0.0797,0.0799,0.0801,0.0778,0.0777,0.0776,0.0774,0,0.0019,0.0042,0.0075,0.0141,0.0203,0.0265,0.0362,0.0394,0.0535,0.0625,0.0661,0.0682,0.0661,0.0694,0.0662,0.0666,0.0839,0.0762,0.0774,0.0814,0.0794,0.0772,0.0779,0.0758,0.0761,0.0762,0.0763,0,0.0005,0.0022,0.0065,0.0128,0.0189,0.0233,0.0282,0.0343,0.0413,0.0551,0.0532,0.058,0.0639,0.0597,0.0573,0.0557,0.0579,0.0605,0.0626,0.0644,0.0576,0.0526,0.0382,0,0,0,0,0,-0.0001,0.0018,0.0056,0.012,0.0167,0.0204,0.0281,0.0326,0.0418,0.0423,0.0493,0.0478,0.0468,0.0477,0.0431,0.0481,0.0566,0.0424,0.0605,0.067,0.0688,0.0619,0,0,0,0,0,0,-0.0001,0.0027,0.0044,0.0098,0.0131,0.0183,0.0221,0.0277,0.0292,0.038,0.0368,0.0435,0.0417,0.0482,0.0418,0.0418,0.0519,0.0446,0.0444,0.0659,0.0676,0.0691,0.0626,0,0,0,0,0]},{"header":{"parameterUnit":"m.s-1","parameterCategory":2,"la1":30.2991,"la2":30.254,"lo1":-89.0895,"lo2":-89.0444,"dy":0.0017,"dx":0.0017,"nx":28,"ny":28,"refTime":"2024-02-01T09:00:00:Z","depth":"4","parameterNumber":3,"parameterNumberName":"V-component_of_CURRENTS"},"data":[0,0,0,0,0,0,0,0,0,0,0,0,0,0,0,0,0,0,0,0,0,0,0,0,0,0,0,0,0,0,0,0,0,0,0,0,0,0,0,0,0,0,0,0,0,0,0,0,0,0,0,0,0,0,0,0,0,0,0.0456,0.0456,0,0.0476,0.0476,0.0476,0.0542,0.0544,0.0545,0.0546,0.0569,0.0568,0.0567,0,0,0,0,0,0,0,0,0,0,0,0,0,0.0452,0.0452,0.0455,0.0456,0.0456,0.0476,0.0476,0.0476,0.0542,0.0544,0.0545,0.0547,0.0569,0.0568,0.0567,0,0,0,0,0,0,0,0,0,0,0,0,0,0.0462,0.0452,0.0455,0.049,0.0493,0.0476,0.0476,0.0477,0.0542,0.0544,0.0546,0.0548,0.0569,0.0568,0.0567,0.0519,0,0,0.0564,0.0563,0,0,0,0,0,0,0,0,0.0461,0.0462,0.0485,0.0488,0.0491,0.0508,0.0483,0.0491,0.0541,0.0524,0.0546,0.0549,0.0546,0.0547,0.0548,0.052,0.0521,0.0564,0.0563,0.0563,0.0562,0,0,0,0,0,0,0,0.0461,0.0461,0.0465,0.0485,0.0489,0.0497,0.0501,0.0485,0.0524,0.0526,0.0531,0.0531,0.0548,0.0549,0.0549,0.0522,0.0564,0.0563,0.0562,0.0562,0.0487,0.0486,0,0,0,0,0,0,0.0455,0.0461,0.0464,0.0465,0.048,0.0496,0.05,0.0501,0.0525,0.053,0.0529,0.0534,0.0549,0.055,0.055,0.0541,0.0563,0.0562,0.0561,0.0488,0.0487,0.0485,0,0,0,0,0,0,0.0455,0.0455,0.0463,0.0463,0.0464,0.0494,0.0494,0.05,0.0539,0.0526,0.0533,0.0565,0.0551,0.0551,0.057,0.0541,0.0561,0.056,0.049,0.0488,0.0486,0.0494,0,0,0,0,0,0,0.0454,0.0455,0.0461,0.0462,0.0464,0.0477,0.0492,0.0499,0.0533,0.0541,0.0558,0.0561,0.0553,0.0571,0.0569,0.054,0.0559,0.0492,0.0489,0.0487,0.0495,0.0492,0.049,0,0,0,0,0,0.0454,0.046,0.0461,0.0462,0.0469,0.0477,0.048,0.0508,0.0533,0.0551,0.0568,0.0562,0.0551,0.0571,0.0567,0.0538,0.0493,0.049,0.0487,0.0496,0.0493,0.049,0,0,0,0,0,0,0.0467,0.0466,0.0468,0.0475,0.0484,0.0489,0.0504,0.0524,0.055,0.0567,0.0565,0.0568,0.0564,0.0551,0.0572,0.0504,0.0512,0.0508,0.052,0.0516,0.0514,0.0513,0.0559,0,0,0,0,0,0.0466,0.0472,0.0471,0.0479,0.0483,0.0498,0.0508,0.053,0.0546,0.0563,0.0577,0.0569,0.0538,0.0536,0.0519,0.0496,0.0475,0.0465,0.0462,0.046,0.0455,0.0396,0.0388,0.0475,0.0475,0.0475,0,0,0.0469,0.0473,0.0475,0.0482,0.049,0.0498,0.0512,0.0538,0.0558,0.0556,0.0597,0.0573,0.0533,0.0506,0.0499,0.05,0.0428,0.0456,0.0455,0.045,0.0392,0.0383,0.0376,0.0473,0.0473,0.0474,0,0,0.0479,0.0485,0.0491,0.0501,0.0518,0.0521,0.0537,0.056,0.0586,0.0603,0.0592,0.0568,0.0548,0.0506,0.0476,0.0447,0.0421,0.0425,0.0407,0.035,0.0343,0.0336,0.032,0.0312,0.0417,0.0417,0.0417,0,0.0486,0.0492,0.0496,0.0509,0.0523,0.0535,0.0554,0.0566,0.06,0.0606,0.0624,0.0558,0.0539,0.0467,0.0446,0.0441,0.0414,0.0428,0.0348,0.0341,0.0333,0.0319,0.0309,0.0417,0.0417,0.0417,0.0417,0,0.0497,0.0508,0.0516,0.053,0.0547,0.0566,0.0579,0.0601,0.0625,0.0625,0.0598,0.0559,0.051,0.0482,0.0453,0.0371,0.0372,0.036,0.0363,0.0325,0.0312,0.0302,0.0417,0.0417,0.0417,0.0417,0,0,0.0493,0.0516,0.0522,0.0531,0.0566,0.0575,0.0601,0.0608,0.0612,0.0616,0.0602,0.0527,0.0497,0.0459,0.0408,0.0349,0.0282,0.0324,0.0321,0.032,0.0175,0.0182,0.0172,0.0246,0.0244,0.0242,0.0194,0,0.05,0.0526,0.0542,0.0565,0.0577,0.0598,0.0615,0.0628,0.0631,0.062,0.0561,0.0521,0.0488,0.0445,0.038,0.03,0.0251,0.0297,0.02,0.0198,0.0217,0.0159,0.0235,0.0187,0.0185,0.0183,0.0182,0,0.0504,0.0521,0.0554,0.0578,0.0585,0.0606,0.0626,0.0642,0.0621,0.0617,0.0562,0.0518,0.042,0.0403,0.0261,0.0287,0.0229,0.0178,0.0175,0.0169,0.0185,0.0223,0.0164,0.0166,0.0167,0.0168,0.0169,0,0.0495,0.0526,0.0555,0.0567,0.0596,0.062,0.0639,0.0646,0.0649,0.0608,0.0583,0.0487,0.0425,0.0329,0.0227,0.0229,0.009,0.0087,0.005,0.0052,0.0062,0.0069,-0.0007,-0.0007,-0.0006,-0.0006,-0.0006,0,0.0491,0.0507,0.0554,0.0564,0.0592,0.0626,0.0646,0.0647,0.064,0.0613,0.0572,0.0505,0.0394,0.0306,0.0223,0.0108,0.0088,0.0034,0.0023,0.007,0.0078,0.0057,0.0065,-0.0008,-0.0008,-0.0007,-0.0007,0,0.047,0.0503,0.0525,0.0568,0.0588,0.0613,0.0655,0.0651,0.0653,0.0612,0.059,0.0502,0.0377,0.0295,0.0143,0.0102,-0.0002,-0.0029,0.0052,0.005,0.0006,0.0015,-0.0086,-0.0086,-0.0087,-0.0087,-0.0087,0,0.0455,0.047,0.0522,0.0542,0.0568,0.0611,0.0631,0.0655,0.0644,0.059,0.055,0.0445,0.0374,0.0182,0.0101,-0.0016,-0.0033,-0.0053,-0.0057,-0.001,-0.001,-0.0001,0.0009,-0.0088,-0.0088,-0.0088,-0.0088,0,0.0423,0.0453,0.0473,0.0512,0.0548,0.0573,0.0603,0.0589,0.059,0.0591,0.0477,0.0387,0.0265,0.0143,0.0074,-0.0019,-0.0028,-0.0058,-0.0058,-0.0062,-0.0014,-0.0012,-0.0002,-0.009,-0.009,-0.0089,-0.0089,0,0.0398,0.0409,0.0443,0.0474,0.0512,0.0521,0.0544,0.0523,0.0517,0.047,0.0421,0.0312,0.0257,0.014,0.0056,-0.001,-0.0035,-0.0046,-0.0047,-0.0046,-0.0017,0.0051,-0.0032,0,0,0,0,0,0.0371,0.0378,0.0398,0.0432,0.0463,0.0485,0.0509,0.0527,0.0527,0.0438,0.0435,0.0317,0.0184,0.0121,0.0047,0.0052,-0.0034,-0.0033,-0.0043,-0.0099,-0.0097,-0.0069,0,0,0,0,0,0,0.0354,0.0371,0.0381,0.0389,0.0399,0.0429,0.0442,0.0447,0.0402,0.0391,0.0309,0.0304,0.0168,0.0212,0.004,0.0023,0.001,-0.0084,-0.0085,-0.01,-0.0098,-0.0096,-0.0068,0,0,0,0,0]}]]